| time (UTC) | temp F | wind direction | speed MPH | gust MPH | rain 1hr in | rain 24hr in | rain mn in | humidity % | barometer mb |
| 20260507113518 | 45 | 0.0 | 1.0 | 0.00 | 0.00 | 0.00 | 74 | 1015.7 | |
| 20260507112518 | 45 | 0.0 | 2.0 | 0.00 | 0.00 | 0.00 | 75 | 1015.7 | |
| 20260507111518 | 44 | 0.0 | 0.0 | 0.00 | 0.00 | 0.00 | 75 | 1015.4 | |
| 20260507110518 | 44 | 0.0 | 1.0 | 0.00 | 0.00 | 0.00 | 77 | 1015.3 | |
| 20260507105518 | 43 | 0.0 | 1.0 | 0.00 | 0.00 | 0.00 | 78 | 1015.1 | |
| 20260507104518 | 42 | 0.0 | 1.0 | 0.00 | 0.00 | 0.00 | 79 | 1015.0 | |
| 20260507103518 | 42 | 0.0 | 1.0 | 0.00 | 0.00 | 0.00 | 79 | 1014.8 | |
| 20260507102518 | 43 | 0.0 | 1.0 | 0.00 | 0.00 | 0.00 | 80 | 1014.8 | |
| 20260507101518 | 43 | 0.0 | 2.0 | 0.00 | 0.00 | 0.00 | 80 | 1014.9 | |
| 20260507100538 | 43 | 0.0 | 1.0 | 0.00 | 0.00 | 0.00 | 80 | 1014.9 | |
| 20260507095518 | 43 | 0.0 | 3.0 | 0.00 | 0.00 | 0.00 | 80 | 1014.9 | |
| 20260507094518 | 43 | 0.0 | 1.0 | 0.00 | 0.00 | 0.00 | 80 | 1015.0 | |
| 20260507093518 | 44 | 0.0 | 1.0 | 0.00 | 0.00 | 0.00 | 80 | 1014.9 | |
| 20260507092538 | 44 | 0.0 | 1.0 | 0.00 | 0.00 | 0.00 | 80 | 1014.9 | |
| 20260507091518 | 44 | 0.0 | 2.0 | 0.00 | 0.00 | 0.00 | 79 | 1014.7 | |
| 20260507090518 | 44 | 0.0 | 1.0 | 0.00 | 0.00 | 0.00 | 79 | 1014.6 | |
| 20260507085518 | 45 | 0.0 | 2.0 | 0.00 | 0.00 | 0.00 | 80 | 1014.6 | |
| 20260507084518 | 45 | 0.0 | 0.0 | 0.00 | 0.00 | 0.00 | 79 | 1014.6 | |
| 20260507083518 | 45 | 0.0 | 2.0 | 0.00 | 0.00 | 0.00 | 79 | 1014.6 | |
| 20260507082518 | 45 | 0.0 | 1.0 | 0.00 | 0.01 | 0.00 | 79 | 1014.6 | |
| 20260507081538 | 45 | 0.0 | 2.0 | 0.00 | 0.01 | 0.00 | 80 | 1014.5 | |
| 20260507080518 | 46 | 0.0 | 4.0 | 0.00 | 0.01 | 0.00 | 80 | 1014.5 | |
| 20260507075518 | 46 | 0.0 | 2.0 | 0.00 | 0.01 | 0.00 | 79 | 1014.5 | |
| 20260507074518 | 46 | 0.0 | 3.0 | 0.00 | 0.02 | 0.00 | 79 | 1014.5 | |
| 20260507073518 | 47 | 0.0 | 4.0 | 0.00 | 0.03 | 0.00 | 77 | 1014.6 | |
| 20260507072518 | 47 | 0.0 | 1.0 | 0.00 | 0.04 | 0.00 | 77 | 1014.6 | |
| 20260507071518 | 48 | 0.0 | 0.0 | 0.00 | 0.04 | 0.00 | 75 | 1014.6 | |
| 20260507070518 | 48 | 0.0 | 0.0 | 0.00 | 0.06 | 0.00 | 75 | 1014.6 | |
| 20260507065518 | 48 | 0.0 | 2.0 | 0.00 | 0.09 | 0.00 | 74 | 1014.6 | |
| 20260507064518 | 48 | 0.0 | 1.0 | 0.00 | 0.10 | 0.00 | 75 | 1014.7 | |
| 20260507063518 | 48 | 0.0 | 1.0 | 0.00 | 0.10 | 0.00 | 75 | 1014.9 | |
| 20260507062518 | 48 | 0.0 | 2.0 | 0.00 | 0.10 | 0.00 | 76 | 1014.8 | |
| 20260507061518 | 48 | 0.0 | 4.0 | 0.00 | 0.10 | 0.00 | 77 | 1014.7 | |
| 20260507060518 | 48 | 0.0 | 4.0 | 0.00 | 0.12 | 0.00 | 78 | 1014.8 | |
| 20260507055518 | 48 | 0.0 | 1.0 | 0.00 | 0.14 | 0.00 | 79 | 1014.9 | |
| 20260507054518 | 48 | 0.0 | 0.0 | 0.00 | 0.15 | 0.00 | 79 | 1014.8 | |
| 20260507053518 | 48 | 0.0 | 0.0 | 0.00 | 0.16 | 0.00 | 79 | 1015.0 | |
| 20260507052538 | 48 | 0.0 | 0.0 | 0.00 | 0.18 | 0.00 | 80 | 1014.9 | |
| 20260507051518 | 48 | 0.0 | 0.0 | 0.00 | 0.20 | 0.00 | 81 | 1014.9 | |
| 20260507050518 | 47 | 0.0 | 0.0 | 0.00 | 0.24 | 0.00 | 82 | 1015.0 | |
| 20260507045538 | 47 | 0.0 | 0.0 | 0.00 | 0.28 | 0.00 | 83 | 1015.1 | |
| 20260507044518 | 47 | 0.0 | 0.0 | 0.00 | 0.34 | 0.00 | 82 | 1015.1 | |
| 20260507043518 | 47 | 0.0 | 0.0 | 0.00 | 0.35 | 0.00 | 82 | 1014.9 | |
| 20260507042518 | 47 | 0.0 | 0.0 | 0.00 | 0.38 | 0.00 | 81 | 1014.8 | |
| 20260507041518 | 47 | 0.0 | 0.0 | 0.00 | 0.40 | 0.00 | 81 | 1014.9 | |
| 20260507040518 | 47 | 0.0 | 0.0 | 0.00 | 0.43 | 0.00 | 80 | 1014.8 | |
| 20260507035517 | 48 | 0.0 | 0.0 | 0.00 | 0.45 | 0.45 | 80 | 1014.8 | |
| 20260507034537 | 48 | 0.0 | 0.0 | 0.00 | 0.46 | 0.45 | 78 | 1014.8 | |
| 20260507033517 | 48 | 0.0 | 0.0 | 0.00 | 0.47 | 0.45 | 78 | 1014.8 | |
| 20260507032517 | 49 | 0.0 | 0.0 | 0.00 | 0.47 | 0.45 | 77 | 1014.6 | |
| 20260507031517 | 49 | 0.0 | 0.0 | 0.00 | 0.48 | 0.45 | 77 | 1014.8 | |
| 20260507030537 | 50 | 0.0 | 0.0 | 0.00 | 0.50 | 0.45 | 76 | 1014.8 | |
| 20260507025518 | 51 | 0.0 | 0.0 | 0.00 | 0.50 | 0.45 | 72 | 1015.0 | |
| 20260507024519 | 51 | 0.0 | 0.0 | 0.00 | 0.51 | 0.45 | 72 | 1014.9 | |
| 20260507023538 | 51 | 0.0 | 0.0 | 0.00 | 0.52 | 0.45 | 72 | 1014.8 | |
| 20260507022519 | 51 | 0.0 | 0.0 | 0.00 | 0.53 | 0.45 | 72 | 1014.7 | |
| 20260507021519 | 51 | 0.0 | 0.0 | 0.00 | 0.55 | 0.45 | 71 | 1014.8 | |
| 20260507020519 | 52 | 0.0 | 0.0 | 0.00 | 0.56 | 0.45 | 69 | 1014.6 | |
| 20260507015519 | 52 | 0.0 | 0.0 | 0.00 | 0.58 | 0.45 | 68 | 1014.5 | |
| 20260507014519 | 52 | 0.0 | 0.0 | 0.00 | 0.60 | 0.45 | 68 | 1014.4 | |
| 20260507013539 | 52 | 0.0 | 0.0 | 0.00 | 0.61 | 0.45 | 68 | 1014.3 | |
| 20260507012520 | 52 | 0.0 | 0.0 | 0.00 | 0.61 | 0.45 | 68 | 1014.3 | |
| 20260507011520 | 52 | 0.0 | 0.0 | 0.00 | 0.62 | 0.45 | 69 | 1014.1 | |
| 20260507010519 | 52 | 0.0 | 0.0 | 0.00 | 0.64 | 0.45 | 69 | 1014.2 | |
| 20260507005519 | 53 | 0.0 | 0.0 | 0.00 | 0.68 | 0.45 | 68 | 1014.2 | |
| 20260507004519 | 54 | 0.0 | 0.0 | 0.00 | 0.71 | 0.45 | 67 | 1014.1 | |
| 20260507003519 | 54 | 0.0 | 0.0 | 0.00 | 0.72 | 0.45 | 66 | 1014.1 | |
| 20260507002519 | 55 | 0.0 | 0.0 | 0.00 | 0.72 | 0.45 | 65 | 1013.8 | |
| 20260507001518 | 55 | 0.0 | 0.0 | 0.00 | 0.72 | 0.45 | 63 | 1013.8 | |
| 20260507000519 | 55 | 0.0 | 0.0 | 0.00 | 0.73 | 0.45 | 63 | 1013.6 | |
| 20260506235518 | 56 | 0.0 | 1.0 | 0.00 | 0.74 | 0.45 | 61 | 1013.6 | |
| 20260506234559 | 56 | 338 | 1.0 | 4.0 | 0.00 | 0.75 | 0.45 | 61 | 1013.6 |
| 20260506233521 | 56 | 0.0 | 2.0 | 0.00 | 0.75 | 0.45 | 59 | 1013.6 | |
| 20260506232519 | 57 | 0.0 | 3.0 | 0.00 | 0.76 | 0.45 | 59 | 1013.5 | |
| 20260506231519 | 57 | 293 | 1.0 | 4.0 | 0.00 | 0.77 | 0.45 | 57 | 1013.3 |
| 20260506230519 | 57 | 315 | 2.0 | 5.0 | 0.00 | 0.77 | 0.45 | 56 | 1013.4 |
| 20260506225518 | 57 | 338 | 2.0 | 8.0 | 0.00 | 0.77 | 0.45 | 60 | 1013.5 |
| 20260506224539 | 57 | 315 | 2.0 | 6.0 | 0.00 | 0.77 | 0.45 | 57 | 1013.4 |
| 20260506223518 | 57 | 0.0 | 2.0 | 0.00 | 0.77 | 0.45 | 58 | 1013.5 | |
| 20260506222519 | 57 | 0 | 1.0 | 5.0 | 0.00 | 0.77 | 0.45 | 59 | 1013.6 |
| 20260506221518 | 57 | 0.0 | 4.0 | 0.00 | 0.77 | 0.45 | 59 | 1013.7 | |
| 20260506220519 | 57 | 0.0 | 1.0 | 0.00 | 0.78 | 0.45 | 58 | 1013.8 | |
| 20260506215519 | 57 | 293 | 1.0 | 4.0 | 0.00 | 0.79 | 0.45 | 58 | 1013.9 |
| 20260506214538 | 58 | 23 | 1.0 | 6.0 | 0.00 | 0.80 | 0.45 | 56 | 1013.7 |
| 20260506213518 | 58 | 293 | 1.0 | 3.0 | 0.00 | 0.81 | 0.45 | 52 | 1013.6 |
| 20260506212519 | 58 | 315 | 3.0 | 10.0 | 0.00 | 0.81 | 0.45 | 56 | 1013.7 |
| 20260506211519 | 58 | 293 | 1.0 | 2.0 | 0.00 | 0.82 | 0.45 | 58 | 1013.4 |
| 20260506210519 | 57 | 23 | 2.0 | 6.0 | 0.00 | 0.82 | 0.45 | 59 | 1013.2 |
| 20260506205518 | 57 | 0 | 2.0 | 7.0 | 0.00 | 0.83 | 0.45 | 58 | 1013.1 |
| 20260506204519 | 57 | 0 | 4.0 | 7.0 | 0.00 | 0.83 | 0.45 | 56 | 1013.1 |
| 20260506203559 | 57 | 0 | 3.0 | 5.0 | 0.00 | 0.83 | 0.45 | 57 | 1013.2 |
| 20260506202539 | 58 | 0 | 3.0 | 10.0 | 0.00 | 0.84 | 0.45 | 57 | 1013.3 |
| 20260506201518 | 57 | 0 | 2.0 | 5.0 | 0.00 | 0.85 | 0.45 | 56 | 1013.2 |
| 20260506200518 | 57 | 293 | 1.0 | 5.0 | 0.00 | 0.86 | 0.45 | 56 | 1013.3 |
| 20260506195519 | 58 | 293 | 1.0 | 6.0 | 0.00 | 0.87 | 0.45 | 58 | 1013.2 |
| 20260506194519 | 58 | 315 | 2.0 | 5.0 | 0.00 | 0.88 | 0.45 | 56 | 1013.3 |
| 20260506193518 | 59 | 293 | 2.0 | 7.0 | 0.00 | 0.90 | 0.45 | 56 | 1013.2 |
| 20260506192519 | 59 | 0 | 2.0 | 5.0 | 0.00 | 0.94 | 0.45 | 61 | 1013.1 |
| 20260506191519 | 58 | 315 | 2.0 | 7.0 | 0.00 | 0.97 | 0.45 | 53 | 1012.9 |
| 20260506190518 | 58 | 0 | 3.0 | 7.0 | 0.00 | 0.97 | 0.45 | 54 | 1013.0 |
| 20260506185518 | 58 | 315 | 3.0 | 10.0 | 0.00 | 0.97 | 0.45 | 55 | 1012.9 |
| 20260506184518 | 58 | 315 | 2.0 | 8.0 | 0.00 | 0.97 | 0.45 | 55 | 1013.1 |
| 20260506183518 | 58 | 293 | 1.0 | 6.0 | 0.00 | 0.97 | 0.45 | 56 | 1012.8 |
| 20260506182518 | 59 | 0 | 1.0 | 5.0 | 0.00 | 0.97 | 0.45 | 57 | 1012.9 |
| 20260506181519 | 59 | 293 | 1.0 | 3.0 | 0.00 | 0.97 | 0.45 | 56 | 1012.9 |
| 20260506180518 | 59 | 293 | 2.0 | 9.0 | 0.00 | 0.97 | 0.45 | 56 | 1013.1 |
| 20260506175518 | 59 | 0 | 1.0 | 5.0 | 0.00 | 0.97 | 0.45 | 59 | 1013.1 |
| 20260506174518 | 59 | 23 | 2.0 | 8.0 | 0.00 | 0.97 | 0.45 | 57 | 1013.4 |
| 20260506173518 | 59 | 0 | 2.0 | 4.0 | 0.00 | 0.97 | 0.45 | 57 | 1013.4 |
| 20260506172518 | 59 | 0 | 2.0 | 8.0 | 0.00 | 0.97 | 0.45 | 60 | 1013.2 |
| 20260506171519 | 58 | 293 | 1.0 | 5.0 | 0.00 | 0.97 | 0.45 | 64 | 1013.5 |
| 20260506170519 | 58 | 23 | 3.0 | 10.0 | 0.00 | 0.97 | 0.45 | 61 | 1013.5 |
| 20260506165519 | 58 | 315 | 1.0 | 5.0 | 0.00 | 0.97 | 0.45 | 61 | 1013.6 |
| 20260506164518 | 57 | 293 | 2.0 | 10.0 | 0.00 | 0.97 | 0.45 | 61 | 1013.6 |
| 20260506163518 | 57 | 270 | 1.0 | 3.0 | 0.00 | 0.97 | 0.45 | 60 | 1013.5 |
| 20260506162518 | 57 | 0 | 3.0 | 10.0 | 0.00 | 0.97 | 0.45 | 63 | 1013.6 |
| 20260506161518 | 57 | 45 | 1.0 | 6.0 | 0.00 | 0.97 | 0.45 | 64 | 1013.5 |
| 20260506160518 | 55 | 0 | 4.0 | 9.0 | 0.00 | 0.97 | 0.45 | 67 | 1013.3 |
| 20260506155518 | 54 | 23 | 5.0 | 10.0 | 0.00 | 0.97 | 0.45 | 65 | 1013.5 |
| 20260506154518 | 54 | 45 | 5.0 | 8.0 | 0.00 | 0.97 | 0.45 | 63 | 1013.3 |
| 20260506153518 | 54 | 23 | 3.0 | 8.0 | 0.00 | 0.97 | 0.45 | 68 | 1013.4 |
| 20260506152518 | 54 | 315 | 2.0 | 5.0 | 0.00 | 0.97 | 0.45 | 68 | 1013.7 |
| 20260506151518 | 53 | 23 | 4.0 | 10.0 | 0.00 | 0.97 | 0.45 | 65 | 1013.5 |
| 20260506150519 | 53 | 0 | 3.0 | 7.0 | 0.00 | 0.97 | 0.45 | 69 | 1013.1 |
| 20260506145519 | 52 | 0 | 5.0 | 12.0 | 0.00 | 0.97 | 0.45 | 70 | 1013.0 |
| 20260506144518 | 52 | 23 | 4.0 | 10.0 | 0.00 | 0.97 | 0.45 | 73 | 1012.6 |
| 20260506143518 | 51 | 0 | 5.0 | 8.0 | 0.00 | 0.97 | 0.45 | 74 | 1012.5 |
| 20260506142518 | 51 | 0 | 5.0 | 10.0 | 0.00 | 0.97 | 0.45 | 76 | 1012.3 |
| 20260506141518 | 50 | 23 | 4.0 | 10.0 | 0.00 | 0.97 | 0.45 | 76 | 1012.6 |
| 20260506140538 | 50 | 23 | 6.0 | 10.0 | 0.00 | 0.97 | 0.45 | 78 | 1012.2 |
| 20260506135538 | 49 | 0 | 5.0 | 11.0 | 0.00 | 0.97 | 0.45 | 79 | 1012.0 |
| 20260506134538 | 49 | 293 | 3.0 | 8.0 | 0.00 | 0.97 | 0.45 | 80 | 1012.0 |
| 20260506133518 | 48 | 338 | 3.0 | 10.0 | 0.00 | 0.97 | 0.45 | 81 | 1012.2 |
| 20260506132518 | 48 | 293 | 2.0 | 8.0 | 0.00 | 0.97 | 0.45 | 81 | 1012.2 |
| 20260506131518 | 48 | 0 | 3.0 | 7.0 | 0.00 | 0.97 | 0.45 | 81 | 1011.8 |
| 20260506130518 | 48 | 45 | 1.0 | 4.0 | 0.00 | 0.97 | 0.45 | 81 | 1012.1 |
| 20260506125518 | 47 | 338 | 2.0 | 6.0 | 0.00 | 0.97 | 0.45 | 81 | 1011.8 |
| 20260506124538 | 47 | 293 | 2.0 | 7.0 | 0.00 | 0.97 | 0.45 | 81 | 1011.6 |
| 20260506123518 | 47 | 45 | 3.0 | 6.0 | 0.00 | 0.97 | 0.45 | 81 | 1011.5 |
| 20260506122518 | 46 | 338 | 3.0 | 8.0 | 0.00 | 0.97 | 0.45 | 81 | 1011.4 |
| 20260506121518 | 46 | 0 | 4.0 | 9.0 | 0.00 | 0.97 | 0.45 | 82 | 1011.3 |
| 20260506120518 | 46 | 338 | 3.0 | 6.0 | 0.00 | 0.97 | 0.45 | 82 | 1011.0 |
| 20260506115518 | 46 | 0 | 3.0 | 6.0 | 0.00 | 0.97 | 0.45 | 83 | 1011.1 |
| 20260506114518 | 45 | 0 | 2.0 | 4.0 | 0.00 | 0.97 | 0.45 | 83 | 1010.6 |